STARLINK-36443, 67431

Orbit data source: Space-Track

STARLINK-36443, 67431 is a payload satellite owned by SpaceX/Seattle (US) in LEO that was launched on Mon, 12 Jan 2026 UTC via an FALCON 9 launch vehicle from the Air Force Eastern Test Range (AFETR). Payload-class satellites include a variety of spacecraft equipped with specific instruments for various scientific and technological missions. These include communications satellites like Starlink; space stations such as the ISS; scientific satellites like the Hubble; Earth observation satellites from companies like Planet Labs, Umbra, and HawkEye 360; GPS; miniature CubeSats for education and research; and military/defense satellites.

Loading next visibility...
Identifier
67431, 2026-005AD
Orbit
LEO
Country
Flag of USUS
Related business
Manufacturer
SpaceX/Seattle
Mission
Operational Commercial Communications
Bus & Motor
STARLINK V2MO, Unknown motor
Mass
575 kg wet, ~530 kg dry
Launch date (UTC)
2026-01-12 (5 months ago)
Launch vehicle
FALCON 9
Launch site
Air Force Eastern Test Range (AFETR)
Object type
Payload
Rocket body
Debris
Shape & HBR
Box + 2 Pan, 17.7 m
Radar Cross Section
36.964 m², Large (>1 m²)

Expand to show TLE details & history
Last TLE update: 21 hours ago

TLE from 21 hours ago
0 STARLINK-36443
1 67431U 26005AD  26170.98274622  .00021266  00000-0  77972-3 0  9992
2 67431  43.0016  20.0414 0000987 289.7663  70.3082 15.27594993 24340
Epoch: 2026-06-19T23:35Z
TLE epoch observation values (Epoch: 2026-06-19T23:35:09.273Z)
Latitude
-0.00003°
Longitude
118.04883°
Altitude
482.552 km
Speed
7.626 km/s
True Right ascension
01h 20m 09s
True Declination
0° 00' 00"
Sunlit
Object was in daylight at epoch
Visualization orbit readout
Latitude
Unknown
Longitude
Unknown
Altitude
Unknown
Speed
Unknown
Apparent Right ascension
Unknown
Apparent Declination
Unknown
Sunlit
N/A
Visualization observer readout
Local Sidereal Time
07:16:33
Azimuth
Unknown
Elevation
Unknown
Doppler factor
Unknown
Orbital elements
Apogee altitude
485.627 km
Perigee altitude
484.272 km
Semi-major axis
6,863.086 km
Eccentricity
0.0001
Inclination
43.0016°
RAAN
20.0414°
Arg. of periapsis
289.7663°
True anomaly
70.31885°
Mean anomaly
70.3082°
Eccentric anomaly
70.31352°
Mean motion
3.81737 °/min
Orbital period
94.31 mins
BSTAR
0.00077972
Loading maneuver chart data...
Computing Atmospheric mass density...
Loading historical data...
Loading historical data...
Loading historical data...
Loading historical data...
Loading historical data...
Loading historical data...
Loading historical data...

Documentation

Showing up to 5 results
|